Weather in Taebaek

South Korea     37°10′30″N   128°59′23″E
temp.,
°C
wind,
m/s
gust,
m/s
humid.,
%
clouds,
%
prec.,
mm/h
press.,
hPa
HPBL,
m
19 june, sat
sat1900:00+13wsw34974 0.0 100272
03:00+12wsw33960 0.0 100156
06:00+13w239727 0.0 1002128
09:00+20wnw12530 0.0 1002628
12:00+25n23290 0.0 10002145
15:00+25n143485 0.0 9992640
18:00+21wnw14610 0.0 1000486
21:00+15wsw227278 0.0 100227
20 june, sun
sun2000:00+15wsw3368100 0.0 100242
03:00+15wsw2267100 0.0 100229
06:00+14wsw2271100 0.0 100329
09:00+23wsw13387 0.0 1002923
12:00+27wsw382360 0.0 10012401
15:00+24wsw384099 0.0 10002253
18:00+23wsw4115686 0.2 9991531
21:00+16wsw24822 0.3 1001144
21 june, mon
mon2100:00+14wsw339640 0.0 100274
03:00+12wsw33965 0.0 100253
06:00+13w389527 0.0 1002410
09:00+19wnw475914 0.0 10021305
12:00+22nw364798 0.1 10021969
15:00+17nne348852 2.6 1004403
18:00+16ne229236 1.6 1005293
21:00+12nne129971 2.3 100770
22 june, tue
tue2200:00+12nnw119885 0.1 100885
03:00+11s019733 0.1 100841
06:00+12s119514 0.0 100973
09:00+19sse136410 0.0 1008849
12:00+18e1181100 0.8 1008506
15:00+16ene219696 3.2 1008439
18:00+15ene129995 1.2 1009197
21:00+14e1210089 1.6 101093
23 june, wed
wed2300:00+13e119984 0.0 101152
03:00+13ese019994 0.0 101054
06:00+14e009893 0.1 101153
09:00+16e118673 0.1 1011551
12:00+20e217060 0.7 1011973
15:00+16ene129690 3.3 1011326
18:00+15ene129995 1.6 1011213
21:00+14e1110077 1.8 101261